Location: Delta State University
(33.7460°N, 90.7320°W)
Time: 05:15:33
(UTC-05:00)

Iridium 13 - Visible Passes

Search period start: 21 April 2014 00:00
Search period end: 01 May 2014 00:00
Orbit: 776 x 779 km, 86.4° (Epoch: 20 April)

Date Brightness Start Highest point End Pass type
(mag) Time Alt. Az. Time Alt. Az. Time Alt. Az.
21 Apr 9.0 04:53:31 10° ENE 04:54:34 11° ENE 04:55:36 10° E visible
22 Apr 6.2 05:57:04 10° N 06:02:14 62° E 06:07:21 10° SSE visible
23 Apr 7.6 05:24:00 10° NNE 05:28:36 31° E 05:33:11 10° SE visible
24 Apr 8.4 04:51:38 10° NE 04:54:52 16° ENE 04:58:04 10° ESE visible
26 Apr 6.7 05:23:45 10° NNE 05:28:46 47° E 05:33:45 10° SSE visible
27 Apr 7.9 04:50:54 10° NNE 04:55:06 24° E 04:59:17 10° SE visible
28 Apr 8.5 04:19:10 10° NE 04:21:18 12° ENE 04:23:26 10° ESE visible
29 Apr 5.9 05:23:41 10° N 05:28:53 71° E 05:34:04 10° S visible
30 Apr 7.1 04:50:31 10° NNE 04:55:17 36° E 05:00:02 10° SSE visible
